TimeEDT,TemperatureF,Dew PointF,Humidity,Sea Level PressureIn,VisibilityMPH,Wind Direction,Wind SpeedMPH,Gust SpeedMPH,PrecipitationIn,Events,Conditions,WindDirDegrees,DateUTC
12:51 AM,62.1,60.1,93,30.15,3.0,NNE,8.1,-,0.00,,Light Drizzle,20,2012-10-04 04:51:00
1:51 AM,62.1,60.1,93,30.14,7.0,NNE,4.6,-,0.00,,Overcast,20,2012-10-04 05:51:00
2:51 AM,62.1,60.1,93,30.14,4.0,NNE,5.8,-,N/A,,Overcast,20,2012-10-04 06:51:00
3:51 AM,62.1,60.1,93,30.13,4.0,NNE,8.1,-,N/A,,Overcast,20,2012-10-04 07:51:00
4:51 AM,62.1,60.1,93,30.16,3.0,North,4.6,-,N/A,,Overcast,350,2012-10-04 08:51:00
5:00 AM,60.8,60.8,100,30.15,2.5,North,6.9,-,N/A,,Overcast,360,2012-10-04 09:00:00
5:51 AM,61.0,60.1,97,30.14,2.5,NNE,6.9,-,0.00,,Overcast,20,2012-10-04 09:51:00
6:24 AM,62.6,60.8,94,30.14,3.0,North,6.9,-,N/A,,Overcast,360,2012-10-04 10:24:00
6:51 AM,62.1,60.1,93,30.15,4.0,North,6.9,-,N/A,,Overcast,360,2012-10-04 10:51:00
7:51 AM,61.0,59.0,93,30.15,5.0,North,5.8,-,N/A,,Overcast,360,2012-10-04 11:51:00
8:51 AM,62.1,59.0,90,30.16,10.0,North,6.9,-,N/A,,Overcast,10,2012-10-04 12:51:00
9:51 AM,62.1,60.1,93,30.16,7.0,North,5.8,-,N/A,,Overcast,360,2012-10-04 13:51:00
10:51 AM,64.4,60.8,88,30.15,10.0,NNE,6.9,-,N/A,,Overcast,30,2012-10-04 14:51:00
11:51 AM,64.4,60.8,88,30.15,10.0,North,6.9,-,N/A,,Overcast,360,2012-10-04 15:51:00
12:04 PM,66.2,60.8,83,30.14,10.0,NNW,6.9,-,N/A,,Overcast,340,2012-10-04 16:04:00
12:51 PM,66.0,60.1,81,30.12,10.0,North,9.2,-,N/A,,Overcast,360,2012-10-04 16:51:00
1:51 PM,64.9,60.1,84,30.10,10.0,North,5.8,-,N/A,,Overcast,360,2012-10-04 17:51:00
2:51 PM,64.9,60.1,84,30.07,10.0,NE,6.9,-,N/A,,Overcast,40,2012-10-04 18:51:00
3:51 PM,64.9,60.1,84,30.06,10.0,NE,6.9,-,N/A,,Overcast,50,2012-10-04 19:51:00
4:00 PM,64.4,60.8,88,30.06,10.0,NE,5.8,-,N/A,,Overcast,50,2012-10-04 20:00:00
4:51 PM,64.9,60.1,84,30.07,10.0,Calm,Calm,-,N/A,,Overcast,0,2012-10-04 20:51:00
5:00 PM,64.4,60.8,88,30.08,10.0,NNW,4.6,-,N/A,,Overcast,330,2012-10-04 21:00:00
5:51 PM,64.9,60.1,84,30.07,10.0,North,4.6,-,N/A,,Overcast,350,2012-10-04 21:51:00
6:27 PM,64.4,60.8,88,30.07,10.0,NNW,3.5,-,N/A,,Overcast,340,2012-10-04 22:27:00
6:51 PM,64.9,60.1,84,30.07,10.0,North,5.8,-,N/A,,Overcast,10,2012-10-04 22:51:00
7:07 PM,64.4,60.8,88,30.07,10.0,North,5.8,-,N/A,,Overcast,360,2012-10-04 23:07:00
7:22 PM,64.4,60.8,88,30.06,10.0,North,4.6,-,N/A,,Overcast,10,2012-10-04 23:22:00
7:51 PM,64.0,61.0,90,30.06,10.0,NNE,3.5,-,N/A,,Overcast,20,2012-10-04 23:51:00
8:25 PM,64.4,60.8,88,30.06,5.0,Calm,Calm,-,N/A,,Overcast,0,2012-10-05 00:25:00
8:51 PM,64.0,61.0,90,30.06,5.0,NNE,3.5,-,N/A,,Overcast,20,2012-10-05 00:51:00
9:51 PM,63.0,61.0,93,30.07,5.0,SSW,3.5,-,0.00,Rain,Light Rain,200,2012-10-05 01:51:00
10:25 PM,62.6,62.6,100,30.06,3.0,South,5.8,-,0.06,Rain,Rain,190,2012-10-05 02:25:00
10:38 PM,62.6,62.6,100,30.04,2.5,SSE,10.4,-,0.12,Rain,Heavy Rain,150,2012-10-05 02:38:00
10:49 PM,62.6,62.6,100,30.04,3.0,South,5.8,-,N/A,Rain,Light Rain,190,2012-10-05 02:49:00
10:51 PM,62.6,62.6,100,30.04,3.0,SSW,5.8,-,N/A,Rain,Light Rain,200,2012-10-05 02:51:00
10:59 PM,62.6,62.6,100,30.05,3.0,WNW,4.6,-,0.00,Rain,Light Rain,290,2012-10-05 02:59:00
11:11 PM,62.6,62.6,100,30.05,2.5,NNW,4.6,-,0.01,Rain,Light Rain,330,2012-10-05 03:11:00
11:51 PM,63.0,62.1,97,30.04,2.5,Calm,Calm,-,0.01,,Overcast,0,2012-10-05 03:51:00